Home   Weather   Braintree   Past weeks
Flag for USA

Past Weather in Braintree, Massachusetts, USA — Yesterday and Last 2 Weeks

Now
33 °F

Chilly.


Feels Like: 26 °F
Forecast: 43 / 31 °F
Wind: 8 mph from North

Location: East Milton

Current Time: Nov 17, 2019 at 5:29:26 pm

Latest Report: Nov 17, 2019 at 4:51 pm


Visibility: N/A

Pressure: 30.29 "Hg

Humidity: 88%

Dew Point: 30 °F

Location of BraintreeLocation

Past Weather in Braintree — Graph

°F

Braintree Temperature Yesterday

Maximum temperature yesterday: 35 °F (at 12:51 am)
Minimum temperature yesterday: 22 °F (at 6:51 am)
Average temperature yesterday: 28 °F

High & Low Weather Summary for the Past Weeks

 TemperatureHumidityPressure
High68 °F (Nov 5, 3:56 pm)100% (Nov 5, 1:56 pm)30.52 "Hg (Nov 5, 1:56 pm)
Low17 °F (Nov 14, 5:51 am)21% (Nov 16, 12:51 pm)29.69 "Hg (Nov 12, 6:51 am)
Average37 °F62%30.21 "Hg
* Reported Nov 2 4:56 pm — Nov 17 3:51 pm, Braintree. Weather by CustomWeather, © 2019

Note: Actual official high and low records may vary slightly from our data, if they occured in-between our weather recording intervals... More about our weather records

Advertising

Braintree Weather History for the Previous 24 Hours

Scroll right to see more
 ConditionsComfort  
Time TempWeatherWind HumidityBarometerVisibility
3:51 pm
Sun, Nov 17
33 °FChilly.12 mph88%30.31 "HgN/A
2:51 pm34 °FChilly.7 mph79%30.33 "HgN/A
1:51 pm32 °FChilly.9 mph75%30.34 "HgN/A
12:51 pm33 °FChilly.8 mph70%30.36 "HgN/A
11:51 am33 °FChilly.10 mph70%30.39 "HgN/A
10:51 am32 °FChilly.9 mph69%30.42 "HgN/A
9:51 am30 °FChilly.9 mph66%30.45 "HgN/A
8:51 am27 °FChilly.9 mph69%30.45 "HgN/A
7:51 am26 °FChilly.12 mph71%30.45 "HgN/A
6:51 am25 °FChilly.9 mph69%30.44 "HgN/A
5:51 am23 °FCold.12 mph65%30.45 "HgN/A
4:51 am22 °FCold.13 mph62%30.46 "HgN/A
3:51 am22 °FCold.14 mph57%30.46 "HgN/A
2:51 am21 °FCold.14 mph52%30.45 "HgN/A
1:51 am21 °FCold.13 mph50%30.46 "HgN/A
12:51 am22 °FCold.14 mph44%30.47 "HgN/A
11:51 pm
Sat, Nov 16
22 °FCold.14 mph42%30.50 "HgN/A
10:51 pm23 °FCold.12 mph38%30.51 "HgN/A
9:51 pm23 °FCold.13 mph36%30.51 "HgN/A
8:51 pm24 °FCold.12 mph33%30.52 "HgN/A
7:51 pm25 °FChilly.10 mph30%30.52 "HgN/A
6:51 pm26 °FChilly.9 mph28%30.51 "HgN/A
5:51 pm27 °FChilly.13 mph25%30.50 "HgN/A
Weather by CustomWeather, © 2019

See weather overview